クラーク彗星

71P/Clark (2017)

English version
Home page
Updated on March 25, 2017

---------------------------------------------------------------------

・ プロフィール

・ 写真集

・ 軌道要素

Epoch 2017 June 16.0 TT = JDT 2457920.5
T 2017 June 30.20334 TT                                 MPCW
q   1.5862759            (2000.0)            P               Q
n   0.17738594     Peri.  208.91557     -0.03425896     +0.98937030
a   3.1370631      Node    59.44478     -0.88248407     +0.03642565
e   0.4943436      Incl.    9.44576     -0.46909295     -0.14078203
P   5.56
From 903 observations 2005 Dec. 22-2017 Jan. 9, mean residual 0".8.
     Nongravitational parameters A1 = +2.29, A2 = +0.0739, A3 = -0.4428.

・ 星図

・ 光度変化

        m1 = 7.2 + 5 logΔ + 20.0 log r(t - 30)

---------------------------------------------------------------------

軌道要素はM.P.E.C. 2017-A77に掲載されたものです。
星図はステラナビゲータ Ver.8 (アストロアーツ) で作成したものです。
光度グラフはComet for Windowsで作成したものです。

---------------------------------------------------------------------

Copyright(C) Seiichi Yoshida (comet@aerith.net). All rights reserved.